This demonstration page uses our WeatherBlox Daily Observations layout. Learn more.

Left ArrowRight Arrow

36.17497, -115.13722

Hourly Observations for January 10, 2022

Temp ( °F °C ) Dew Point ( °F °C ) Humidity (%) Winds ( mph kmh ) Pressure ( in mb ) Visibility ( mi km ) Precip ( " mm )
12:53 am 00:53 Clear 42 5.6 20 -6.7 41 41 WNW 3 6 30.55 1034 10 16 0.00 0.00
1:53 am 01:53 Clear 40 4.4 20 -6.7 45 45 NW 5 7 30.55 1035 10 16 0.00 0.00
2:53 am 02:53 Clear 39 3.9 21 -6.1 48 48 NW 6 9 30.56 1035 10 16 0.00 0.00
3:53 am 03:53 Clear 40 4.4 20 -6.7 45 45 WNW 6 9 30.55 1035 10 16 0.00 0.00
4:53 am 04:53 Clear 45 7.2 18 -7.8 34 34 NNW 8 13 30.55 1035 10 16 0.00 0.00
5:53 am 05:53 Clear 44 6.7 18 -7.8 35 35 NNW 9 15 30.57 1035 10 16 0.00 0.00
6:53 am 06:53 Sunny 43 6.1 18 -7.8 37 37 NW 9 15 30.59 1036 10 16 0.00 0.00
7:53 am 07:53 Sunny 44 6.7 19 -7.2 37 37 Calm 30.61 1037 10 16 0.00 0.00
8:53 am 08:53 Sunny 47 8.3 19 -7.2 33 33 Calm 30.62 1037 10 16 0.00 0.00
9:53 am 09:53 Sunny 52 11.1 20 -6.7 28 28 WNW 3 6 30.62 1037 10 16 0.00 0.00
10:53 am 10:53 Sunny 55 12.8 19 -7.2 24 24 W 3 6 30.59 1036 10 16 0.00 0.00
11:53 am 11:53 Sunny 58 14.4 19 -7.2 22 22 Calm 30.54 1034 10 16 0.00 0.00
12:53 pm 12:53 Sunny 58 14.4 16 -8.9 19 19 Calm 30.50 1033 10 16 0.00 0.00
1:53 pm 13:53 Sunny 60 15.6 15 -9.4 17 17 Calm 30.48 1032 10 16 0.00 0.00
2:53 pm 14:53 Sunny 59 15 15 -9.4 18 18 Calm 30.47 1032 10 16 0.00 0.00
3:53 pm 15:53 Sunny 60 15.6 15 -9.4 17 17 Calm 30.46 1031 10 16 0.00 0.00
4:53 pm 16:53 Clear 57 13.9 16 -8.9 20 20 NW 3 6 30.46 1032 10 16 0.00 0.00
5:53 pm 17:53 Clear 53 11.7 16 -8.9 23 23 NNW 6 9 30.47 1032 10 16 0.00 0.00
6:53 pm 18:53 Clear 51 10.6 17 -8.3 26 26 NW 8 13 30.48 1032 10 16 0.00 0.00
7:53 pm 19:53 Clear 51 10.6 16 -8.9 25 25 NNW 10 17 30.48 1032 10 16 0.00 0.00
8:53 pm 20:53 Clear 49 9.4 16 -8.9 27 27 NW 8 13 30.49 1033 10 16 0.00 0.00
9:53 pm 21:53 Clear 50 10 15 -9.4 25 25 NW 12 19 30.49 1033 10 16 0.00 0.00
10:53 pm 22:53 Clear 50 10 15 -9.4 25 25 NNW 12 19 30.50 1033 10 16 0.00 0.00
11:53 pm 23:53 Clear 50 10 15 -9.4 25 25 NW 14 22 30.49 1032 10 16 0.00 0.00

Powered by AerisWeather